When you browse on this site, cookies collect data to enhance your experience and personalize the content and advertising you see.
Visit our Privacy Policy to learn more. By continuing to use the site, you agree to this use of cookies and data.
  • In Portugal
  • List of Countries
  • For 7 days
  • Water Temperature
  • Weather Map
  • Weather Widgets
  • user-avatar
    Login

    Hourly Weather Dhaka

    Today, 19 February, Wednesday

    Time Temperature Precipitation Wind Pressure Humidity
    00:00 +19°C° 0 mm 0 mps 760 mmHg 50%
    01:00 +19°C° 0 mm 0 mps 760 mmHg 51%
    02:00 +20°C° 0 mm 1 mps 760 mmHg 52%
    03:00 +20°C° 0 mm 1 mps 759 mmHg 53%
    04:00 +19°C° 0 mm 1 mps 759 mmHg 55%
    05:00 +19°C° 0 mm 1 mps 759 mmHg 57%
    06:00 +19°C° 0 mm 1 mps 760 mmHg 65%
    07:00 +21°C° 0 mm 1 mps 760 mmHg 59%
    08:00 +23°C° 0 mm 1 mps 761 mmHg 52%
    09:00 +25°C° 0 mm 1 mps 761 mmHg 46%
    10:00 +27°C° 0 mm 1 mps 761 mmHg 39%
    11:00 +29°C° 0 mm 1 mps 761 mmHg 32%
    12:00 +29°C° 0 mm 0 mps 761 mmHg 28%
    13:00 +31°C° 0 mm 1 mps 760 mmHg 26%
    14:00 +31°C° 0 mm 1 mps 759 mmHg 24%
    15:00 +31°C° 0 mm 2 mps 758 mmHg 22%
    16:00 +30°C° 0 mm 2 mps 758 mmHg 25%
    17:00 +28°C° 0 mm 2 mps 758 mmHg 27%
    18:00 +26°C° 0 mm 1 mps 758 mmHg 30%
    19:00 +25°C° 0 mm 1 mps 758 mmHg 31%
    20:00 +24°C° 0 mm 1 mps 759 mmHg 32%
    21:00 +24°C° 0 mm 1 mps 759 mmHg 34%
    22:00 +23°C° 0 mm 1 mps 759 mmHg 39%
    23:00 +21°C° 0 mm 2 mps 760 mmHg 44%

    Tomorrow, 20 February, Thursday

    Time Temperature Precipitation Wind Pressure Humidity
    00:00 +21°C° 0 mm 2 mps 760 mmHg 49%
    01:00 +20°C° 0 mm 2 mps 759 mmHg 52%
    02:00 +21°C° 0 mm 1 mps 759 mmHg 55%
    03:00 +20°C° 0 mm 1 mps 759 mmHg 58%
    04:00 +20°C° 0 mm 1 mps 759 mmHg 59%
    05:00 +19°C° 0 mm 1 mps 759 mmHg 61%
    06:00 +19°C° 0 mm 1 mps 760 mmHg 62%
    07:00 +21°C° 0 mm 1 mps 760 mmHg 56%
    08:00 +23°C° 0 mm 1 mps 761 mmHg 51%
    09:00 +25°C° 0 mm 1 mps 762 mmHg 46%
    10:00 +27°C° 0 mm 1 mps 761 mmHg 40%
    11:00 +29°C° 0 mm 1 mps 761 mmHg 35%
    12:00 +31°C° 0 mm 1 mps 761 mmHg 29%
    13:00 +31°C° 0 mm 1 mps 760 mmHg 27%
    14:00 +31°C° 0 mm 1 mps 759 mmHg 24%
    15:00 +32°C° 0 mm 1 mps 758 mmHg 22%
    16:00 +30°C° 0 mm 1 mps 758 mmHg 24%
    17:00 +29°C° 0 mm 1 mps 758 mmHg 26%
    18:00 +27°C° 0 mm 1 mps 758 mmHg 29%
    19:00 +26°C° 0 mm 1 mps 759 mmHg 29%
    20:00 +25°C° 0 mm 1 mps 759 mmHg 30%
    21:00 +25°C° 0 mm 1 mps 760 mmHg 31%
    22:00 +24°C° 0 mm 1 mps 760 mmHg 33%
    23:00 +23°C° 0 mm 1 mps 760 mmHg 34%

    Day after tomorrow, 21 February, Friday

    Time Temperature Precipitation Wind Pressure Humidity
    00:00 +23°C° 0 mm 1 mps 760 mmHg 36%
    01:00 +22°C° 0 mm 1 mps 760 mmHg 40%
    02:00 +21°C° 0 mm 1 mps 760 mmHg 44%
    03:00 +18°C° 0 mm 0 mps 760 mmHg 48%
    04:00 +18°C° 0 mm 0 mps 760 mmHg 48%
    05:00 +18°C° 0 mm 0 mps 760 mmHg 48%
    06:00 +18°C° 0 mm 0 mps 760 mmHg 48%
    07:00 +22°C° 0 mm 1 mps 761 mmHg 43%
    08:00 +24°C° 0 mm 1 mps 762 mmHg 38%
    09:00 +26°C° 0 mm 1 mps 762 mmHg 33%
    10:00 +28°C° 0 mm 1 mps 762 mmHg 30%
    11:00 +30°C° 0 mm 2 mps 762 mmHg 26%
    12:00 +31°C° 0 mm 2 mps 761 mmHg 23%
    19:00 +27°C° 0 mm 2 mps 760 mmHg 28%
    20:00 +26°C° 0 mm 2 mps 760 mmHg 29%
    21:00 +25°C° 0 mm 2 mps 761 mmHg 30%
    22:00 +24°C° 0 mm 2 mps 761 mmHg 30%
    23:00 +24°C° 0 mm 2 mps 761 mmHg 30%

    22 February, Saturday

    Time Temperature Precipitation Wind Pressure Humidity
    00:00 +23°C° 0 mm 2 mps 761 mmHg 30%
    01:00 +21°C° 0 mm 2 mps 761 mmHg 31%
    02:00 +21°C° 0 mm 2 mps 761 mmHg 33%
    03:00 +21°C° 0 mm 1 mps 760 mmHg 34%
    04:00 +21°C° 0 mm 1 mps 760 mmHg 37%
    05:00 +20°C° 0 mm 1 mps 760 mmHg 39%
    06:00 +20°C° 0 mm 1 mps 760 mmHg 42%
    07:00 +22°C° 0 mm 1 mps 761 mmHg 40%
    08:00 +24°C° 0 mm 1 mps 762 mmHg 38%
    09:00 +27°C° 0 mm 1 mps 762 mmHg 36%
    10:00 +29°C° 0 mm 2 mps 762 mmHg 33%
    11:00 +31°C° 0 mm 2 mps 761 mmHg 30%
    12:00 +34°C° 0 mm 3 mps 761 mmHg 26%
    13:00 +35°C° 0 mm 3 mps 760 mmHg 25%
    14:00 +35°C° 0 mm 3 mps 759 mmHg 24%
    15:00 +36°C° 0 mm 3 mps 758 mmHg 22%
    16:00 +34°C° 0 mm 3 mps 758 mmHg 25%
    17:00 +31°C° 0 mm 3 mps 758 mmHg 28%
    18:00 +30°C° 0 mm 3 mps 759 mmHg 30%
    19:00 +29°C° 0 mm 3 mps 759 mmHg 32%
    20:00 +27°C° 0 mm 3 mps 760 mmHg 34%
    21:00 +26°C° 0 mm 3 mps 760 mmHg 35%
    22:00 +26°C° 0 mm 2 mps 760 mmHg 37%
    23:00 +25°C° 0 mm 2 mps 760 mmHg 39%

    23 February, Sunday

    Time Temperature Precipitation Wind Pressure Humidity
    00:00 +24°C° 0 mm 1 mps 760 mmHg 40%
    01:00 +24°C° 0 mm 1 mps 760 mmHg 42%
    02:00 +23°C° 0 mm 1 mps 759 mmHg 43%
    03:00 +23°C° 0 mm 1 mps 759 mmHg 45%
    04:00 +22°C° 0 mm 1 mps 759 mmHg 46%
    05:00 +20°C° 0 mm 0 mps 759 mmHg 48%
    06:00 +19°C° 0 mm 0 mps 759 mmHg 50%
    07:00 +23°C° 0 mm 1 mps 760 mmHg 45%
    08:00 +26°C° 0 mm 1 mps 761 mmHg 40%
    09:00 +28°C° 0 mm 1 mps 762 mmHg 36%
    10:00 +30°C° 0 mm 2 mps 761 mmHg 32%
    11:00 +32°C° 0 mm 2 mps 761 mmHg 29%
    12:00 +35°C° 0 mm 3 mps 761 mmHg 26%
    13:00 +35°C° 0 mm 3 mps 760 mmHg 25%
    14:00 +36°C° 0 mm 3 mps 759 mmHg 24%
    15:00 +36°C° 0 mm 3 mps 758 mmHg 22%
    16:00 +34°C° 0 mm 3 mps 758 mmHg 25%
    17:00 +32°C° 0 mm 2 mps 758 mmHg 28%
    18:00 +30°C° 0 mm 2 mps 757 mmHg 30%
    19:00 +29°C° 0 mm 1 mps 758 mmHg 32%
    20:00 +28°C° 0 mm 1 mps 758 mmHg 34%
    21:00 +27°C° 0 mm 1 mps 758 mmHg 35%
    22:00 +26°C° 0 mm 1 mps 758 mmHg 37%
    23:00 +26°C° 0 mm 1 mps 758 mmHg 38%

    24 February, Monday

    Time Temperature Precipitation Wind Pressure Humidity
    00:00 +25°C° 0 mm 1 mps 758 mmHg 39%
    01:00 +24°C° 0 mm 1 mps 758 mmHg 41%
    02:00 +24°C° 0 mm 1 mps 758 mmHg 42%
    03:00 +23°C° 0 mm 1 mps 758 mmHg 43%
    04:00 +23°C° 0 mm 1 mps 758 mmHg 44%
    05:00 +23°C° 0 mm 1 mps 758 mmHg 45%
    06:00 +23°C° 0 mm 1 mps 758 mmHg 46%
    07:00 +25°C° 0 mm 1 mps 758 mmHg 42%
    08:00 +27°C° 0 mm 1 mps 759 mmHg 39%
    09:00 +28°C° 0 mm 1 mps 760 mmHg 35%
    10:00 +30°C° 0 mm 1 mps 759 mmHg 32%
    11:00 +32°C° 0 mm 1 mps 759 mmHg 29%
    12:00 +35°C° 0 mm 2 mps 758 mmHg 25%
    13:00 +36°C° 0 mm 2 mps 758 mmHg 25%
    14:00 +36°C° 0 mm 2 mps 757 mmHg 24%
    15:00 +36°C° 0 mm 2 mps 756 mmHg 23%
    16:00 +35°C° 0 mm 2 mps 756 mmHg 25%
    17:00 +32°C° 0 mm 1 mps 755 mmHg 28%
    18:00 +30°C° 0 mm 1 mps 755 mmHg 30%
    19:00 +29°C° 0 mm 2 mps 756 mmHg 32%
    20:00 +28°C° 0 mm 2 mps 756 mmHg 33%
    21:00 +28°C° 0 mm 3 mps 757 mmHg 34%
    22:00 +27°C° 0 mm 2 mps 757 mmHg 35%
    23:00 +26°C° 0 mm 2 mps 757 mmHg 36%
    Show more